Location: Betz
(49.1556°N, 2.9558°E)
Time: 05:56:49
(UTC+00:00)

Cosmos 1140 Rocket - Visible Passes

Search period start: 10 December 2019 00:00
Search period end: 20 December 2019 00:00
Orbit: 745 x 767 km, 74.1° (Epoch: 09 December)

Date Brightness Start Highest point End Pass type
(mag) Time Alt. Az. Time Alt. Az. Time Alt. Az.
10 Dec 6.1 03:14:34 15° ESE 03:14:34 15° ESE 03:15:41 10° ESE visible
10 Dec 4.1 04:54:38 42° SSW 04:54:38 42° SSW 04:58:24 10° S visible
10 Dec 4.3 17:46:23 10° SSE 17:50:28 30° ESE 17:50:28 30° ESE visible
10 Dec 5.1 19:27:33 10° SW 19:30:32 31° WSW 19:30:32 31° WSW visible
11 Dec 5.0 04:15:43 26° SSE 04:15:43 26° SSE 04:17:58 10° SSE visible
11 Dec 5.5 05:55:48 11° WSW 05:55:48 11° WSW 05:56:18 10° WSW visible
11 Dec 4.9 17:07:09 10° SE 17:10:28 18° E 17:11:21 17° E visible
11 Dec 3.6 18:46:31 10° SSW 18:51:25 71° W 18:51:25 71° W visible
12 Dec 6.1 03:36:50 12° SE 03:36:50 12° SE 03:37:08 10° SE visible
12 Dec 5.5 05:16:55 13° SW 05:16:55 13° SW 05:17:34 10° SSW visible
12 Dec 3.3 18:05:55 10° S 18:10:59 67° ESE 18:12:14 49° NE visible
12 Dec 5.7 19:49:17 10° WSW 19:52:17 21° WNW 19:52:17 21° WNW visible
13 Dec 3.9 17:25:45 10° S 17:30:28 39° ESE 17:32:58 24° NE visible
13 Dec 4.8 19:07:37 10° WSW 19:12:18 35° WNW 19:13:00 33° NW visible
14 Dec 4.7 16:46:09 10° SSE 16:50:04 23° E 16:53:37 12° NE visible
14 Dec 4.0 18:26:25 10° SW 18:31:27 57° WNW 18:33:39 32° N visible
14 Dec 6.3 20:12:16 10° WNW 20:13:41 12° NW 20:13:41 12° NW visible
15 Dec 3.4 17:45:36 10° SSW 17:50:44 86° ESE 17:54:13 21° NNE visible
15 Dec 5.7 19:29:40 10° W 19:33:16 19° NW 19:34:16 18° NNW visible
16 Dec 3.7 17:05:14 10° S 17:10:09 50° ESE 17:14:44 12° NNE visible
16 Dec 5.2 18:47:47 10° WSW 18:52:13 28° NW 18:54:46 19° N visible
17 Dec 4.4 16:25:21 10° SSE 16:29:42 29° E 16:34:06 10° NE visible
17 Dec 4.4 18:06:22 10° SW 18:11:18 45° WNW 18:15:12 16° N visible
17 Dec 6.3 19:53:35 10° NW 19:54:33 10° NW 19:55:14 10° NNW visible
18 Dec 3.6 17:25:23 10° SSW 17:30:31 76° WNW 17:35:36 11° NNE visible
18 Dec 5.9 19:10:12 10° W 19:13:16 16° NW 19:15:37 12° NNW visible
19 Dec 3.5 16:44:48 10° S 16:49:52 64° ESE 16:55:00 10° NNE visible
19 Dec 5.5 18:28:02 10° WSW 18:32:09 23° NW 18:35:57 11° N visible
